Regional Weather Roundup
Issued by NWS Portland, ME

Home | Current Version | Previous Version | Text Only | Print | Product List | Glossary On
Versions: 1 2 3 4 5 6 7 8 9 10 11 12 13 14 15 16 17 18 19 20 21 22 23 24 25 26 27 28 29 30 31 32 33 34 35 36 37 38 39 40 41 42 43 44 45 46 47 48 49 50
000
ASUS41 KGYX 302010
RWRGYX
WEATHER ROUNDUP FOR MAINE AND NEW HAMPSHIRE
NATIONAL WEATHER SERVICE GRAY ME
400 PM EDT MON MAY 30 2016

MEZ002-005-006-010-012-015-018-020-021-024-026-027-029-302100-
MAINE

CITY           SKY/WX    TMP DP  RH WIND       PRES   REMARKS
PORTLAND       PTSUNNY   65  58  78 S8        29.88F
SANFORD        MOSUNNY   73  63  68 S6        29.89F
BAR HARBOR     CLOUDY    63  56  78 SW12      29.88F
WISCASSET      MOSUNNY   68  58  70 S8        29.88F
ROCKLAND       MOSUNNY   61  54  77 S12       29.88F
FRYEBURG       SUNNY     81  62  52 SW8       29.84F
LEWISTONAUBURN MOSUNNY  N/A N/A N/A S8        29.85F
AUGUSTA        SUNNY     74  62  66 S9        29.85F
WATERVILLE     SUNNY     72  62  71 S8        29.82F
BANGOR         MOSUNNY   74  61  63 S10       29.84F
GREENVILLE       N/A     71  60  68 VRB5      29.80F
MILLINOCKET    SUNNY     71  60  68 VRB5      29.81F
HOULTON        SUNNY     68  59  73 S9        29.78F
PRESQUE ISLE   NOT AVBL
FRENCHVILLE    MOSUNNY   73  62  68 S10       29.71F
CARIBOU        SUNNY     72  62  71 S8        29.73F
$$

NHZ002-005-008-009-011-012-014-302100-
NEW HAMPSHIRE

CITY           SKY/WX    TMP DP  RH WIND       PRES   REMARKS
PORTSMOUTH     PTSUNNY   71  64  76 SE8       29.88F
ROCHESTER      MOSUNNY   76  65  68 VRB6      29.88F
NASHUA         CLOUDY    77  68  73 VRB5      29.90F
MANCHESTER     CLOUDY    76  65  68 S9        29.87F
CONCORD        MOSUNNY   79  67  66 SE9       29.87F
LACONIA        MOSUNNY   79  66  64 S9        29.88F
PLYMOUTH       FAIR      80  64  59 S6        29.84F
BERLIN         MOSUNNY   85  57  38 MISG      29.83F
WHITEFIELD     SUNNY     83  58  42 VRB6      29.83F
JAFFREY        CLOUDY    75  64  68 SW7       29.92F
KEENE          MOSUNNY  N/A N/A N/A SW8       29.89F
LEBANON        SUNNY     84  64  50 S14       29.83F
MT WASHINGTON  PTSUNNY   57  50  77 W21         N/A
$$

VTZ005-007-008-302100-
VERMONT

CITY           SKY/WX    TMP DP  RH WIND       PRES   REMARKS
ST JOHNSBURY     N/A     82  61  48 MISG      29.79F
MONTPELIER     FAIR      83  60  45 SW13G21   29.87F
BURLINGTON     FAIR      85  64  49 SW16G25   29.78F
$$

MAZ007-012-024-CTZ003-RIZ002-NYZ038-NYZ072-302100-
SOUTHERN NEW ENGLAND AND NY

CITY           SKY/WX    TMP DP  RH WIND       PRES   REMARKS
BOSTON         PTSUNNY   75  66  73 SW12      29.91F
WORCESTER      MOSUNNY   75  64  68 SW10      29.94F
NANTUCKET      LGT RAIN  63  61  93 SW15      29.97F VSB 1/2
PROVIDENCE     CLOUDY    73  68  84 SW10      29.94F
HARTFORD       PTSUNNY   79  66  64 S8        29.90F
ALBANY         PTSUNNY   84  65  52 S12       29.86F
NEW YORK CITY  CLOUDY    78  73  84 S13       29.92F
$$

ANZ081-ANZ082-ANZ150-NHZ014-MEZ023>029-302100-
COASTAL MARINE OBSERVATIONS

STATION/POSITION TIME  TEMP    WIND        PRES    WAVE
                       AIR SEA DIR/SP/G            HT/PER
                 (UTC) (F)     (DEG/KT/KT) (MB)    (FT/S)
MOUNT DESERT ROC 2000   52     180/ 16/ 16 1012.4F
MATINICUS ROCK   2000   54     190/ 13/ 14 1011.9F
ISLE OF SHOALS   1900   57     160/ 13/ 14 1012.9F
JEFFREYS LEDGE   1908      55                N/A     2/ 5
CASHES LEDGE BUO 1950   53 51  180/ 12/ 12 1012.1F   2/ 6
GEORGES BANK BUO 1950   59 54              1016.8F   3/ 8
$$

.............KEY..............
   WCI - WIND CHILL
   TC  - TEMPERATURE IN CELSIUS
   VSB - VISIBILITY IN MILES
   HX  - HEAT INDEX
   FAIR- INDICATES FEW OR NO CLOUDS BELOW 12,000 FT, WITH NO
         SIGNIFICANT WEATHER AND/OR OBSTRUCTIONS TO VISIBILITY.





USA.gov is the U.S. government's official web portal to all federal, state and local government web resources and services.